timestamp,surface_pressure_avg,surface_temp_avg,battery_voltage,lat,long
2022-09-20 00:09:00+00:00,261.0231,13.96,11.46,47.84626,-54.09684
2022-09-20 00:19:00+00:00,262.2298,14.0,11.37,47.84626,-54.09684
2022-09-20 00:29:00+00:00,259.7814,14.0,11.37,47.84626,-54.09684
2022-09-20 00:39:00+00:00,258.3864,14.0,11.37,47.84626,-54.09684
2022-09-20 00:49:00+00:00,256.223,14.0,11.37,47.84626,-54.09684
2022-09-20 00:59:00+00:00,254.7664,14.0,11.37,47.84626,-54.09684
2022-09-20 01:09:00+00:00,251.3281,14.0,11.37,47.84626,-54.09684
2022-09-20 01:19:00+00:00,251.8414,14.03,11.37,47.84626,-54.09684
2022-09-20 01:29:00+00:00,251.0781,14.05,11.37,47.84626,-54.09684
2022-09-20 01:39:00+00:00,247.2298,14.05,11.37,47.84626,-54.09684
2022-09-20 01:49:00+00:00,247.1114,14.05,11.37,47.84626,-54.09684
2022-09-20 01:59:00+00:00,249.9281,14.06,11.37,47.84626,-54.09684
2022-09-20 02:09:00+00:00,248.3248,14.05,11.37,47.84626,-54.09684
2022-09-20 02:19:01+00:00,247.4581,14.04,11.37,47.84626,-54.09684
2022-09-20 02:29:01+00:00,250.9714,14.04,11.37,47.84626,-54.09684
2022-09-20 02:39:01+00:00,251.8614,14.05,11.37,47.84626,-54.09684
2022-09-20 02:49:01+00:00,247.4831,14.0,11.37,47.84626,-54.09684
2022-09-20 02:59:01+00:00,247.6481,14.0,11.37,47.84626,-54.09684
2022-09-20 03:09:01+00:00,251.5781,14.0,11.37,47.84626,-54.09684
2022-09-20 03:19:00+00:00,252.5397,14.0,11.37,47.84626,-54.09684
2022-09-20 03:29:00+00:00,250.6215,14.0,11.37,47.84626,-54.09684
2022-09-20 03:39:00+00:00,253.9614,14.0,11.37,47.84626,-54.09684
2022-09-20 03:49:00+00:00,256.7831,14.0,11.37,47.84626,-54.09684
2022-09-20 03:59:00+00:00,256.7131,14.0,11.37,47.84626,-54.09684
2022-09-20 04:09:00+00:00,257.5431,14.0,11.37,47.84626,-54.09684
2022-09-20 04:19:01+00:00,265.9297,14.0,11.37,47.84626,-54.09684
2022-09-20 04:29:01+00:00,272.3814,14.0,11.37,47.84626,-54.09684
2022-09-20 04:39:01+00:00,273.7697,14.0,11.37,47.84626,-54.09684
2022-09-20 04:49:01+00:00,275.623,14.1,11.37,47.84626,-54.09684
2022-09-20 04:59:01+00:00,281.7498,14.1,11.37,47.84626,-54.09684
2022-09-20 05:09:01+00:00,284.5764,14.12,11.37,47.84626,-54.09684
2022-09-20 05:19:00+00:00,284.8113,14.13,11.37,47.84626,-54.09684
2022-09-20 05:29:00+00:00,288.7664,14.14,11.37,47.84626,-54.09684
2022-09-20 05:39:00+00:00,291.6781,14.17,11.37,47.84626,-54.09684
2022-09-20 05:49:00+00:00,289.9847,14.18,11.37,47.84626,-54.09684
2022-09-20 05:59:00+00:00,290.4897,14.18,11.37,47.84626,-54.09684
2022-09-20 06:09:00+00:00,293.0697,14.17,11.37,47.84626,-54.09684
2022-09-20 06:19:00+00:00,293.9431,14.16,11.37,47.84626,-54.09684
2022-09-20 06:29:00+00:00,295.028,14.13,11.37,47.84626,-54.09684
2022-09-20 06:39:00+00:00,298.7881,14.15,11.37,47.84626,-54.09684
2022-09-20 06:49:00+00:00,299.0547,14.14,11.37,47.84626,-54.09684
2022-09-20 06:59:00+00:00,296.08299999999997,14.13,11.37,47.84626,-54.09684
2022-09-20 07:09:00+00:00,295.0114,14.14,11.37,47.84626,-54.09684
2022-09-20 07:19:00+00:00,292.718,14.16,11.37,47.84626,-54.09684
2022-09-20 07:29:00+00:00,290.4231,14.13,11.37,47.84626,-54.09684
2022-09-20 07:39:00+00:00,295.3165,14.12,11.37,47.84626,-54.09684
2022-09-20 07:49:00+00:00,300.178,14.14,11.37,47.84626,-54.09684
2022-09-20 07:59:00+00:00,296.168,14.15,11.37,47.84626,-54.09684
2022-09-20 08:09:00+00:00,292.2547,14.13,11.37,47.84626,-54.09684
2022-09-20 08:19:00+00:00,295.8864,14.12,11.3,47.84626,-54.09684
2022-09-20 08:29:00+00:00,299.063,14.12,11.3,47.84626,-54.09684
2022-09-20 08:39:00+00:00,292.9064,14.13,11.3,47.84626,-54.09684
2022-09-20 08:49:00+00:00,291.9313,14.13,11.3,47.84626,-54.09684
2022-09-20 08:59:00+00:00,292.2515,14.14,11.3,47.84626,-54.09684
2022-09-20 09:09:00+00:00,287.3864,14.14,11.3,47.84626,-54.09684
2022-09-20 09:19:00+00:00,280.603,14.14,11.3,47.84626,-54.09684
2022-09-20 09:29:00+00:00,279.4614,14.14,11.3,47.84626,-54.09684
2022-09-20 09:39:00+00:00,276.2181,14.13,11.3,47.84626,-54.09684
2022-09-20 09:49:00+00:00,269.3664,14.14,11.3,47.84626,-54.09684
2022-09-20 09:59:00+00:00,266.8247,14.15,11.3,47.84626,-54.09684
2022-09-20 10:09:00+00:00,266.648,14.14,11.3,47.84626,-54.09684
2022-09-20 10:19:01+00:00,261.5197,14.14,11.3,47.84626,-54.09684
2022-09-20 10:29:01+00:00,255.8481,14.14,11.3,47.84626,-54.09684
2022-09-20 10:39:01+00:00,254.7814,14.1,11.3,47.84626,-54.09684
2022-09-20 10:49:01+00:00,254.3998,14.1,11.3,47.84626,-54.09684
2022-09-20 10:59:01+00:00,248.5098,14.1,11.3,47.84626,-54.09684
2022-09-20 11:09:01+00:00,245.8598,14.1,11.3,47.84626,-54.09684
2022-09-20 11:19:00+00:00,247.8015,14.1,11.53,47.84626,-54.09684
2022-09-20 11:29:00+00:00,245.7848,14.11,11.53,47.84626,-54.09684
2022-09-20 11:39:00+00:00,240.5847,14.11,11.53,47.84626,-54.09684
2022-09-20 11:49:00+00:00,241.9897,14.12,11.53,47.84626,-54.09684
2022-09-20 11:59:00+00:00,243.4297,14.13,11.53,47.84626,-54.09684
2022-09-20 12:09:00+00:00,240.2848,14.14,11.53,47.84626,-54.09684
2022-09-20 12:19:00+00:00,239.0081,14.15,11.7,47.84626,-54.09684
2022-09-20 12:29:00+00:00,242.1281,14.15,11.7,47.84626,-54.09684
2022-09-20 12:39:00+00:00,242.1031,14.12,11.7,47.84626,-54.09684
2022-09-20 12:49:00+00:00,239.5731,14.12,11.7,47.84626,-54.09684
2022-09-20 12:59:00+00:00,238.6331,14.14,11.7,47.84626,-54.09684
2022-09-20 13:09:00+00:00,237.7347,14.15,11.7,47.84626,-54.09684
2022-09-20 13:19:00+00:00,238.2948,14.16,11.77,47.84626,-54.09684
2022-09-20 13:29:00+00:00,239.3632,14.17,11.77,47.84626,-54.09684
2022-09-20 13:39:00+00:00,236.5997,14.18,11.77,47.84626,-54.09684
2022-09-20 13:49:00+00:00,230.5598,14.19,11.77,47.84626,-54.09684
2022-09-20 13:59:00+00:00,229.7981,14.18,11.77,47.84626,-54.09684
2022-09-20 14:09:00+00:00,232.9698,14.19,11.77,47.84626,-54.09684
2022-09-20 14:19:01+00:00,233.9781,14.19,11.77,47.84626,-54.09684
2022-09-20 14:29:01+00:00,234.4081,14.2,11.77,47.84626,-54.09684
2022-09-20 14:39:01+00:00,237.7948,14.2,11.77,47.84626,-54.09684
2022-09-20 14:49:01+00:00,238.7664,14.2,11.77,47.84626,-54.09684
2022-09-20 14:59:01+00:00,237.8781,14.19,11.77,47.84626,-54.09684
2022-09-20 15:09:01+00:00,240.3447,14.2,11.77,47.84626,-54.09684
2022-09-20 15:19:00+00:00,245.4448,14.09,11.77,47.84626,-54.09684
2022-09-20 15:29:00+00:00,247.6414,14.1,11.77,47.84626,-54.09684
2022-09-20 15:39:00+00:00,247.2914,14.2,11.77,47.84626,-54.09684
2022-09-20 15:49:00+00:00,250.6797,14.1,11.77,47.84626,-54.09684
2022-09-20 15:59:00+00:00,255.8781,14.1,11.77,47.84626,-54.09684
2022-09-20 16:09:00+00:00,258.588,14.1,11.77,47.84626,-54.09684
2022-09-20 16:19:00+00:00,262.6081,14.16,11.77,47.84626,-54.09684
2022-09-20 16:29:00+00:00,268.1497,14.2,11.77,47.84626,-54.09684
2022-09-20 16:39:00+00:00,272.933,14.2,11.77,47.84626,-54.09684
2022-09-20 16:49:00+00:00,275.5697,14.28,11.77,47.84626,-54.09684
2022-09-20 16:59:00+00:00,278.7964,14.3,11.77,47.84626,-54.09684
2022-09-20 17:09:00+00:00,280.77299999999997,14.3,11.77,47.84626,-54.09684
2022-09-20 17:19:00+00:00,284.9197,14.39,11.77,47.84626,-54.09684
2022-09-20 17:29:00+00:00,288.3831,14.4,11.77,47.84626,-54.09684
2022-09-20 17:39:00+00:00,289.7047,14.4,11.77,47.84626,-54.09684
2022-09-20 17:49:00+00:00,291.6297,14.4,11.77,47.84626,-54.09684
2022-09-20 17:59:00+00:00,297.1147,14.4,11.77,47.84626,-54.09684
2022-09-20 18:09:00+00:00,301.0331,14.4,11.77,47.84626,-54.09684
2022-09-20 18:19:00+00:00,301.3879,14.4,11.7,47.84626,-54.09684
2022-09-20 18:29:00+00:00,301.9097,14.4,11.7,47.84626,-54.09684
2022-09-20 18:39:00+00:00,306.5197,14.36,11.7,47.84626,-54.09684
2022-09-20 18:49:00+00:00,312.1197,14.3,11.7,47.84626,-54.09684
2022-09-20 18:59:00+00:00,310.763,14.38,11.7,47.84626,-54.09684
2022-09-20 19:09:00+00:00,310.423,14.4,11.7,47.84626,-54.09684
2022-09-20 19:19:00+00:00,314.1647,14.3,11.61,47.84626,-54.09684
2022-09-20 19:29:00+00:00,317.3763,14.3,11.61,47.84626,-54.09684
2022-09-20 19:39:00+00:00,312.4414,14.36,11.61,47.84626,-54.09684
2022-09-20 19:49:00+00:00,313.3781,14.39,11.61,47.84626,-54.09684
2022-09-20 19:59:00+00:00,316.8446,14.37,11.61,47.84626,-54.09684
2022-09-20 20:09:00+00:00,316.9997,14.38,11.61,47.84626,-54.09684
2022-09-20 20:19:00+00:00,315.0031,14.37,11.53,47.84626,-54.09684
2022-09-20 20:29:00+00:00,315.5679,14.34,11.53,47.84626,-54.09684
2022-09-20 20:39:00+00:00,315.8947,14.35,11.53,47.84626,-54.09684
2022-09-20 20:49:00+00:00,314.4213,14.34,11.53,47.84626,-54.09684
2022-09-20 20:59:00+00:00,314.6996,14.3,11.53,47.84626,-54.09684
2022-09-20 21:09:00+00:00,317.293,14.3,11.53,47.84626,-54.09684
2022-09-20 21:19:00+00:00,316.0663,14.3,11.53,47.84626,-54.09684
2022-09-20 21:29:00+00:00,313.1697,14.3,11.53,47.84626,-54.09684
2022-09-20 21:39:00+00:00,309.7479,14.3,11.53,47.84626,-54.09684
2022-09-20 21:49:00+00:00,306.9163,14.32,11.53,47.84626,-54.09684
2022-09-20 21:59:00+00:00,304.673,14.37,11.53,47.84626,-54.09684
2022-09-20 22:09:00+00:00,303.2747,14.3,11.53,47.84626,-54.09684
2022-09-20 22:19:00+00:00,299.233,14.34,11.53,47.84626,-54.09684
2022-09-20 22:29:00+00:00,295.1663,14.4,11.53,47.84626,-54.09684
2022-09-20 22:39:00+00:00,291.973,14.39,11.53,47.84626,-54.09684
2022-09-20 22:49:00+00:00,289.9047,14.37,11.53,47.84626,-54.09684
2022-09-20 22:59:00+00:00,284.1697,14.4,11.53,47.84626,-54.09684
2022-09-20 23:09:00+00:00,278.5897,14.4,11.53,47.84626,-54.09684
2022-09-20 23:19:00+00:00,274.3864,14.4,11.53,47.84626,-54.09684
2022-09-20 23:29:00+00:00,271.2447,14.4,11.53,47.84626,-54.09684
2022-09-20 23:39:00+00:00,266.7631,14.43,11.53,47.84626,-54.09684
2022-09-20 23:49:00+00:00,262.9397,14.49,11.53,47.84626,-54.09684
2022-09-20 23:59:00+00:00,263.2547,14.5,11.53,47.84626,-54.09684
